Regional Weather Roundup
Issued by NWS

Home | Current Version | Previous Version | Graphics & Text | Print | Product List | Glossary On
Versions: 1 2 3 4 5 6 7 8 9 10 11 12 13 14 15 16 17 18 19 20 21 22 23 24 25 26 27 28 29 30 31 32 33 34 35 36 37 38 39 40 41 42 43 44 45 46 47 48 49 50
000
ASUS43 KOAX 212102
RWRNE

WEATHER ROUNDUP FOR NEBRASKA
NATIONAL WEATHER SERVICE OMAHA NE
300 PM CST TUE FEB 21 2017

NOTES: SATELLITE DATA IS BEING USED TO AUGMENT CLOUD COVER ABOVE
       12000 FEET.
       "FAIR" INDICATES FEW OR NO CLOUDS BELOW 12,000 FEET WITH NO
       SIGNIFICANT WEATHER AND/OR OBSTRUCTIONS TO VISIBILITY.

  * THESE STATIONS DO NOT REPORT WEATHER SUCH AS RAIN...SNOW OR FOG.

NEZ001>004-019>022-054>056-212200-
NEBRASKA PANHANDLE

CITY           SKY/WX    TMP DP  RH WIND       PRES   REMARKS
SCOTTSBLUFF    SUNNY     72  22  15 W28G45    29.83F
ALLIANCE       SUNNY     72  20  14 W33G48    29.83F
CHADRON        SUNNY     71  28  20 W26G45    29.78F
KIMBALL        SUNNY     70  26  19 W40G49    29.92S
SIDNEY         SUNNY     73  16  11 W29G38    29.91F
$$

NEZ057>060-069>072-079>082-212200-
SOUTHWEST NEBRASKA

CITY           SKY/WX    TMP DP  RH WIND       PRES   REMARKS
NORTH PLATTE   SUNNY     78  29  16 W12G21    29.84F
IMPERIAL       SUNNY     76  21  12 W13G23    29.88F
LEXINGTON      SUNNY     77  26  15 W18       29.85F
MCCOOK         SUNNY     79  26  14 W14G23    29.87F
OGALLALA       SUNNY     79  21  11 W23G36    29.85F
$$

NEZ005>010-023>029-035>040-094-212200-
NORTH CENTRAL NEBRASKA

CITY           SKY/WX    TMP DP  RH WIND       PRES   REMARKS
VALENTINE      SUNNY     74  29  19 W21G40    29.75F
AINSWORTH      SUNNY     74  35  24 W23G31    29.77F
BROKEN BOW     SUNNY     76  32  20 W18       29.82F
O`NEILL        SUNNY     76  33  20 W17       29.76F
ORD            SUNNY     77  28  16 W21G29    29.79F
THEDFORD       SUNNY     76  32  19 W24G32    29.81F
$$

NEZ041-046>049-061>064-073>077-083>087-212200-
SOUTH CENTRAL NEBRASKA

CITY           SKY/WX    TMP DP  RH WIND       PRES   REMARKS
GRAND ISLAND   SUNNY     76  28  17 SW18G24   29.83F
AURORA         SUNNY     74  27  17 SW20G25   29.83F
HASTINGS       SUNNY     76  23  14 SW15G22   29.85F
HEBRON         SUNNY     74  25  15 SW16G24   29.88F
HOLDREGE       SUNNY     76  25  15 W13G18    29.86F
KEARNEY *      SUNNY     75  28  17 W16       29.85F
YORK           SUNNY     72  28  20 SW22G31   29.84F
$$

NEZ011>018-030>034-042>045-212200-
NORTHEAST NEBRASKA

CITY           SKY/WX    TMP DP  RH WIND       PRES   REMARKS
NORFOLK        SUNNY     73  27  18 SW22G30   29.78F
ALBION         SUNNY     77  24  14 SW14G29   29.79F
BLAIR          SUNNY     71  36  28 S17       29.84F
FREMONT        SUNNY     73  33  22 S14G20    29.83F
TEKAMAH        SUNNY     72  37  28 S24       29.81F
WAYNE          SUNNY     72  32  23 SW23G29   29.78S
$$

NEZ050>053-065>068-078-088>093-212200-
SOUTHEAST NEBRASKA

CITY           SKY/WX    TMP DP  RH WIND       PRES   REMARKS
LINCOLN        SUNNY     74  31  20 SW15      29.86F
OMAHA EPPLEY   SUNNY     71  36  27 S12       29.85F
BEATRICE       SUNNY     74  30  20 SW15      29.88F
FALLS CITY     SUNNY     69  36  29 S8        29.90F
NEBRASKA CITY  SUNNY     69  26  19 SW13      29.89F
PLATTSMOUTH    SUNNY     69  28  21 S12G21    29.88F
$$

NEZ044-045-051>053-067-212200-
OMAHA AREA

CITY           SKY/WX    TMP DP  RH WIND       PRES   REMARKS
OMAHA EPPLEY   SUNNY     71  36  27 S12       29.85F
BLAIR          SUNNY     71  36  28 S17       29.84F
FREMONT        SUNNY     73  33  22 S14G20    29.83F
MILLARD        SUNNY     73  34  23 SW12G17   29.85F
OFFUTT AFB     SUNNY     70  37  30 S9G18     29.87F
PLATTSMOUTH    SUNNY     69  28  21 S12G21    29.88F
WAHOO          FAIR      74  30  19 S15G24    29.84F
$$




USA.gov is the U.S. government's official web portal to all federal, state and local government web resources and services.